Location: Ottawa
(45.4170°N, 75.7000°W)
Time: 18:49:26
(UTC-05:00)

N. Korean satellite - Visible Passes

Search period start: 25 January 2020 00:00
Search period end: 04 February 2020 00:00
Orbit: 454 x 507 km, 97.2° (Epoch: 25 January)

Date Brightness Start Highest point End Pass type
(mag) Time Alt. Az. Time Alt. Az. Time Alt. Az.
25 Jan 8.2 05:27:56 10° NNE 05:31:16 36° E 05:34:38 10° SSE visible
25 Jan 9.0 17:38:59 10° SSW 17:41:56 27° W 17:44:55 10° NW visible
26 Jan 9.4 05:03:03 10° NE 05:05:38 19° E 05:08:14 10° SE visible
26 Jan 7.3 06:35:54 10° N 06:39:05 30° WNW 06:42:17 10° SW visible
27 Jan 6.5 06:10:07 10° N 06:13:40 63° WNW 06:17:15 10° SSW visible
28 Jan 7.1 05:44:36 10° NNE 05:48:11 61° E 05:51:47 10° S visible
28 Jan 9.7 17:56:34 10° SW 17:58:53 17° W 18:01:15 10° NW visible
29 Jan 8.7 05:19:25 10° NE 05:22:36 29° E 05:25:49 10° SSE visible
29 Jan 7.9 06:53:08 10° NNW 06:55:50 20° WNW 06:58:34 10° WSW visible
30 Jan 9.8 04:54:44 10° NE 04:56:56 15° E 04:59:09 10° SE visible
30 Jan 7.0 06:27:06 10° N 06:30:29 38° WNW 06:33:54 10° SW visible
31 Jan 6.5 06:01:25 10° N 06:05:03 81° WNW 06:08:43 10° SSW visible
31 Jan 10.2 18:14:55 10° WSW 18:15:53 11° W 18:16:51 10° WNW visible
01 Feb 7.7 05:36:00 10° NNE 05:39:32 47° E 05:43:05 10° S visible
01 Feb 9.5 17:47:27 10° SSW 17:50:09 22° W 17:52:54 10° NW visible
02 Feb 9.1 05:10:55 10° NE 05:13:54 24° E 05:16:55 10° SSE visible
02 Feb 7.6 06:44:13 10° NNW 06:47:14 25° WNW 06:50:17 10° SW visible
03 Feb 10.0 04:46:36 10° ENE 04:48:13 12° E 04:49:49 10° ESE visible
03 Feb 6.8 06:18:19 10° N 06:21:52 49° WNW 06:25:25 10° SSW visible
